Regional Weather Roundup
Issued by NWS

Home | Current Version | Previous Version | Graphics & Text | Print | Product List | Glossary On
Versions: 1 2 3 4 5 6 7 8 9 10 11 12 13 14 15 16 17 18 19 20 21 22 23 24 25 26 27 28 29 30 31 32 33 34 35 36 37 38 39 40 41 42 43 44 45 46 47 48 49 50
000
ASUS44 KMEG 252100
RWRTN
TENNESSEE HOURLY STATE WEATHER ROUNDUP
NATIONAL WEATHER SERVICE MEMPHIS TN
300 PM CST TUE NOV 25 2014

TNZ002-004-019-021-049-052-054-088>092-252200-
WEST TENNESSEE

CITY           SKY/WX    TMP DP  RH WIND       PRES   REMARKS
MEMPHIS INTL   PTSUNNY   48  25  40 VRB5      30.16F
NWS MEMPHIS      N/A     48 N/A N/A MISG        N/A
JACKSON        PTSUNNY   46  24  42 W6        30.15F
DYERSBURG      PTSUNNY   43  19  39 NW6       30.18F
UNION CITY     SUNNY     43  25  49 CALM      30.14F
PARIS          SUNNY     43  27  52 NW6       30.14S
LEXINGTON      SUNNY     46  25  42 W5        30.12F
SAVANNAH       SUNNY     46  27  46 N6        30.14S
$$

TNZ008-025-027-028-033-062-065-066-252200-
NORTH MIDDLE TENNESSEE

CITY           SKY/WX    TMP DP  RH WIND       PRES   REMARKS
NASHVILLE      PTSUNNY   50  26  39 VRB7      30.12F
CLARKSVILLE    PTSUNNY   46  26  45 NW6       30.13S
COOKEVILLE     SUNNY     50  30  46 N5        30.08S
CROSSVILLE     MOSUNNY   50  24  36 W6        30.06F
$$

TNZ061-075-076-078-094-096-097-252200-
SOUTH MIDDLE TENNESSEE

CITY           SKY/WX    TMP DP  RH WIND       PRES   REMARKS
TULLAHOMA      SUNNY     48  28  46 NW8       30.09S
WINCHESTER     SUNNY     52  28  40 NW7       30.08S
SHELBYVILLE    SUNNY     52  32  46 NW18G56   30.10S
$$

TNZ017-018-042-046-047-252200-
NORTHEAST TENNESSEE

CITY           SKY/WX    TMP DP  RH WIND       PRES   REMARKS
TRI CITIES     MOSUNNY   54  28  36 CALM      30.05F
ELIZABETHTON   CLEAR     54  25  32 W7        30.04F
$$

TNZ012-013-036-069-073-074-252200-
CENTRAL EAST TENNESSEE

CITY           SKY/WX    TMP DP  RH WIND       PRES   REMARKS
KNOXVILLE      PTSUNNY   55  27  34 VRB5      30.03F
OAK RIDGE      SUNNY     58  28  32 CALM      30.05F
GATLINBURG     CLEAR     55  25  30 N3        30.03F
$$

TNZ083-085-099-252200-
SOUTHEAST TENNESSEE

CITY           SKY/WX    TMP DP  RH WIND       PRES   REMARKS
CHATTANOOGA    PTSUNNY   59  29  31 N3        30.05S
$$

SKY/WX REPORTED AS FAIR MEANS FEW OR NO CLOUDS BELOW
12 THOUSAND FEET.




USA.gov is the U.S. government's official web portal to all federal, state and local government web resources and services.